Flag for France Weather past 2 weeks in Reims, France

30 °F

Ice fog.

Feels Like: 30 °F
Forecast: 38 / 44 °F
Wind: No wind

Location: Chalons-Vatry

Current Time: Nov 27, 2015 at 11:16:31 AM

Latest Report: Nov 27, 2015 at 10:30 AM

Visibility: 0 mi

Pressure: 30.12 "Hg

Humidity: 100%

Dew point: 30 °F

Location of ReimsLocation

Historic Weather in Reims — Graph


Reims temperature yesterday

Maximum temperature yesterday: 45 °F (at 1:00 PM)
Minimum temperature yesterday: 32 °F (at 9:30 PM)
Average temperature yesterday: 38 °F

Past Weeks' High & Low Weather Summary

High61 °F (Nov 12, 2:30 PM)100% (Nov 12, 10:30 PM)30.48 "Hg (Nov 12, 10:30 PM)
Low28 °F (Nov 23, 7:00 PM)67% (Nov 14, 2:30 PM)29.50 "Hg (Nov 21, 5:30 AM)
Average46 °F89%30.06 "Hg
* Reported Nov 12 10:00 AM — Nov 27 10:00 AM, Reims, Weather by CustomWeather, © 2015

Note: Actual official high and low records may vary slightly from our data, if they occured in-between our weather recording intervals... More about our weather records


Reims weather history for previous 24 hours

Time TempWeatherWind HumidityBarometerVisibility
10:00 AM
Fri, Nov 27
30 °FIce fog.No wind100%30.12 "Hg0 mi
9:30 AM30 °FIce fog.No wind93%30.12 "Hg0 mi
9:00 AM28 °FIce fog.No wind100%30.12 "Hg0 mi
7:30 AM30 °FIce fog.No wind93%30.12 "Hg1 mi
7:00 AM30 °FIce fog.No wind93%30.12 "Hg0 mi
6:30 AM30 °FIce fog.No wind93%30.12 "Hg0 mi
6:00 AM30 °FIce fog.No wind93%30.15 "Hg0 mi
5:30 AM30 °FIce fog.No wind93%30.15 "Hg0 mi
5:00 AM30 °FIce fog.No wind100%30.15 "Hg0 mi
4:00 AM30 °FIce fog.No wind100%30.15 "Hg0 mi
3:30 AM32 °FIce fog.1 mph93%30.18 "Hg0 mi
3:00 AM32 °FIce fog.3 mph100%30.18 "Hg0 mi
2:30 AM34 °FFog.2 mph93%30.18 "Hg0 mi
2:00 AM34 °FFog.2 mph100%30.18 "Hg0 mi
1:30 AM34 °FFog.No wind100%30.18 "Hg0 mi
12:30 AM34 °FFog.1 mph100%30.18 "Hg0 mi
12:00 AM34 °FFog.3 mph93%30.18 "Hg0 mi
11:00 PM
Thu, Nov 26
34 °FFog.2 mph100%30.18 "Hg0 mi
10:30 PM34 °FFog.3 mph100%30.18 "Hg0 mi
10:00 PM34 °FFog.No wind93%30.18 "Hg0 mi
9:30 PM32 °FFog.2 mph100%30.18 "Hg1 mi
9:00 PM34 °FPartly cloudy.2 mph100%30.18 "Hg4 mi
8:30 PM34 °FPassing clouds.3 mph93%30.18 "Hg2 mi
8:00 PM36 °FLow clouds.1 mph100%30.18 "Hg2 mi
7:30 PM37 °FPassing clouds.1 mph93%30.18 "Hg4 mi
7:00 PM36 °FPassing clouds.3 mph93%30.15 "Hg4 mi
6:30 PM37 °FPassing clouds.3 mph93%30.15 "HgN/A
6:00 PM37 °FClear.5 mph93%30.15 "Hg10 mi
5:30 PM39 °FPassing clouds.3 mph93%30.12 "HgN/A
5:00 PM39 °FBroken clouds.3 mph93%30.12 "HgN/A
4:30 PM41 °FScattered clouds.2 mph87%30.12 "HgN/A
4:00 PM43 °FBroken clouds.3 mph81%30.12 "HgN/A
3:30 PM43 °FPartly sunny.No wind81%30.09 "HgN/A
3:00 PM43 °FOvercast.3 mph81%30.09 "HgN/A
2:30 PM43 °FBroken clouds.2 mph87%30.09 "HgN/A
2:00 PM41 °FBroken clouds.7 mph93%30.09 "HgN/A
1:30 PM43 °FPartly sunny.8 mph87%30.09 "HgN/A
1:00 PM45 °FMostly cloudy.5 mph81%30.09 "HgN/A
12:30 PM43 °FPartly sunny.5 mph87%30.09 "HgN/A
12:00 PM43 °FPartly sunny.7 mph87%30.09 "HgN/A
11:30 AM43 °FPassing clouds.6 mph87%30.07 "HgN/A
11:00 AM41 °FPassing clouds.5 mph93%30.07 "HgN/A
Weather by CustomWeather, © 2015

See weather overviewHow to use our weather pages